Simultaneous Nadir Overpasses (SNOs) Predictions

Prediction of SNOs between GOES-16 and METOP-B Satellite Orbit:

Table of predicted SNOs for the next 14.0 days since TLE Epoch: 1/18/2020
Index Date Time (GOES-16) GOES-16 Lat,Lon METOP-B Lat,Lon Distance(km) Time Diff (sec)
1 01/18/2020 14:23:56 0.02, -75.20 -0.45, -73.14 234.87 80
2 01/20/2020 02:40:17 -0.01, -75.19 -0.59, -77.74 290.30 80
3 01/21/2020 02:22:19 -0.02, -75.20 0.55, -72.75 279.31 80
4 01/22/2020 14:38:31 0.01, -75.22 0.45, -77.31 238.09 80
5 01/23/2020 14:20:32 0.02, -75.22 -0.63, -72.31 331.93 80
6 01/25/2020 02:36:53 -0.02, -75.22 -0.41, -76.91 192.09 80
7 01/26/2020 02:18:54 -0.02, -75.24 0.73, -71.92 378.43 80
8 01/27/2020 14:35:07 0.02, -75.27 0.27, -76.48 137.56 80
9 01/28/2020 14:17:07 0.03, -75.29 -0.80, -71.48 433.44 80
10 01/30/2020 02:33:29 -0.02, -75.30 -0.22, -76.08 89.22 80
11 01/31/2020 02:15:30 -0.03, -75.32 0.92, -71.09 482.17 80




NCC Satellite Simultaneous Nadir Overpasses (SNOs) Prediction Service
